When you browse on this site, cookies collect data to enhance your experience and personalize the content and advertising you see.
Visit our Privacy Policy to learn more. By continuing to use the site, you agree to this use of cookies and data.
EN

Hourly Weather Megri

Today, 5 July, Sunday

Time Temperature Precipitation Wind Pressure Humidity
00:00 +17°C° 0.1 mm 3 mps 622 mmHg 54%
01:00 +17°C° 0 mm 3 mps 622 mmHg 54%
02:00 +16°C° 0 mm 3 mps 622 mmHg 54%
03:00 +16°C° 0 mm 3 mps 621 mmHg 55%
04:00 +16°C° 0 mm 3 mps 622 mmHg 54%
05:00 +17°C° 0 mm 3 mps 622 mmHg 52%
06:00 +17°C° 0 mm 3 mps 622 mmHg 51%
07:00 +19°C° 0 mm 3 mps 623 mmHg 47%
08:00 +20°C° 0 mm 3 mps 623 mmHg 43%
09:00 +22°C° 0 mm 4 mps 623 mmHg 39%
10:00 +23°C° 0 mm 4 mps 623 mmHg 37%
11:00 +25°C° 0 mm 4 mps 623 mmHg 35%
12:00 +26°C° 0 mm 4 mps 623 mmHg 34%
13:00 +26°C° 0 mm 5 mps 623 mmHg 34%
14:00 +26°C° 0 mm 5 mps 623 mmHg 34%
15:00 +26°C° 0 mm 5 mps 622 mmHg 34%
16:00 +24°C° 0 mm 6 mps 622 mmHg 36%
17:00 +23°C° 0 mm 6 mps 622 mmHg 38%
18:00 +23°C° 0 mm 6 mps 622 mmHg 39%
19:00 +21°C° 0 mm 5 mps 622 mmHg 40%
20:00 +20°C° 0 mm 4 mps 622 mmHg 41%
21:00 +19°C° 0 mm 3 mps 621 mmHg 43%
22:00 +18°C° 0 mm 3 mps 621 mmHg 42%
23:00 +18°C° 0 mm 3 mps 621 mmHg 42%

Tomorrow, 6 July, Monday

Time Temperature Precipitation Wind Pressure Humidity
00:00 +17°C° 0 mm 3 mps 621 mmHg 41%
01:00 +17°C° 0 mm 3 mps 621 mmHg 39%
02:00 +17°C° 0 mm 3 mps 621 mmHg 38%
03:00 +17°C° 0 mm 3 mps 620 mmHg 36%
04:00 +17°C° 0 mm 3 mps 621 mmHg 36%
05:00 +17°C° 0 mm 3 mps 621 mmHg 35%
06:00 +17°C° 0 mm 3 mps 621 mmHg 35%
07:00 +19°C° 0 mm 3 mps 622 mmHg 33%
08:00 +20°C° 0 mm 3 mps 622 mmHg 31%
09:00 +22°C° 0 mm 4 mps 623 mmHg 28%
10:00 +23°C° 0 mm 4 mps 623 mmHg 27%
11:00 +25°C° 0 mm 4 mps 623 mmHg 27%
12:00 +26°C° 0 mm 5 mps 623 mmHg 26%
13:00 +26°C° 0 mm 5 mps 623 mmHg 26%
14:00 +27°C° 0 mm 6 mps 623 mmHg 26%
15:00 +27°C° 0 mm 6 mps 622 mmHg 26%
16:00 +26°C° 0 mm 6 mps 622 mmHg 27%
17:00 +24°C° 0 mm 7 mps 622 mmHg 28%
18:00 +24°C° 0 mm 7 mps 621 mmHg 30%
19:00 +22°C° 0 mm 6 mps 622 mmHg 32%
20:00 +21°C° 0 mm 5 mps 622 mmHg 34%
21:00 +20°C° 0 mm 4 mps 622 mmHg 36%
22:00 +19°C° 0 mm 4 mps 621 mmHg 36%
23:00 +19°C° 0 mm 3 mps 621 mmHg 37%

Day after tomorrow, 7 July, Tuesday

Time Temperature Precipitation Wind Pressure Humidity
00:00 +18°C° 0 mm 3 mps 621 mmHg 38%
01:00 +18°C° 0 mm 3 mps 621 mmHg 38%
02:00 +17°C° 0 mm 3 mps 621 mmHg 38%
03:00 +17°C° 0 mm 3 mps 620 mmHg 38%
04:00 +18°C° 0 mm 3 mps 621 mmHg 38%
05:00 +18°C° 0 mm 3 mps 621 mmHg 38%
06:00 +19°C° 0 mm 3 mps 621 mmHg 37%
07:00 +20°C° 0 mm 3 mps 622 mmHg 34%
08:00 +22°C° 0 mm 3 mps 623 mmHg 30%
09:00 +25°C° 0 mm 3 mps 623 mmHg 27%
10:00 +26°C° 0 mm 3 mps 623 mmHg 26%
11:00 +28°C° 0 mm 4 mps 624 mmHg 24%
12:00 +29°C° 0 mm 4 mps 624 mmHg 23%
13:00 +29°C° 0 mm 4 mps 623 mmHg 23%
14:00 +30°C° 0 mm 4 mps 623 mmHg 22%
15:00 +30°C° 0 mm 4 mps 623 mmHg 22%
16:00 +30°C° 0 mm 4 mps 623 mmHg 23%
17:00 +29°C° 0 mm 4 mps 623 mmHg 25%
18:00 +28°C° 0 mm 4 mps 622 mmHg 26%
19:00 +26°C° 0 mm 4 mps 622 mmHg 29%
20:00 +24°C° 0 mm 3 mps 622 mmHg 31%
21:00 +21°C° 0 mm 3 mps 621 mmHg 33%
22:00 +21°C° 0 mm 2 mps 621 mmHg 34%
23:00 +21°C° 0 mm 2 mps 621 mmHg 35%

8 July, Wednesday

Time Temperature Precipitation Wind Pressure Humidity
00:00 +20°C° 0 mm 2 mps 621 mmHg 35%
01:00 +20°C° 0 mm 2 mps 621 mmHg 36%
02:00 +20°C° 0 mm 2 mps 621 mmHg 36%
03:00 +20°C° 0 mm 2 mps 621 mmHg 37%
04:00 +20°C° 0 mm 2 mps 621 mmHg 37%
05:00 +21°C° 0 mm 2 mps 621 mmHg 37%
06:00 +23°C° 0 mm 1 mps 622 mmHg 38%
07:00 +25°C° 0 mm 1 mps 622 mmHg 34%
08:00 +26°C° 0 mm 1 mps 623 mmHg 30%
09:00 +28°C° 0 mm 1 mps 624 mmHg 26%
10:00 +29°C° 0 mm 2 mps 624 mmHg 24%
11:00 +30°C° 0 mm 2 mps 624 mmHg 23%
12:00 +31°C° 0 mm 2 mps 624 mmHg 22%
13:00 +31°C° 0 mm 2 mps 624 mmHg 22%
14:00 +31°C° 0 mm 3 mps 624 mmHg 23%
15:00 +31°C° 0 mm 3 mps 623 mmHg 24%
16:00 +31°C° 0 mm 3 mps 623 mmHg 25%
17:00 +30°C° 0 mm 3 mps 623 mmHg 26%
18:00 +30°C° 0 mm 3 mps 623 mmHg 27%
19:00 +28°C° 0 mm 3 mps 622 mmHg 31%
20:00 +26°C° 0 mm 2 mps 622 mmHg 36%
21:00 +24°C° 0 mm 2 mps 621 mmHg 40%
22:00 +23°C° 0 mm 2 mps 621 mmHg 41%
23:00 +23°C° 0 mm 2 mps 621 mmHg 42%

9 July, Thursday

Time Temperature Precipitation Wind Pressure Humidity
00:00 +21°C° 0 mm 2 mps 620 mmHg 43%
01:00 +21°C° 0 mm 2 mps 620 mmHg 44%
02:00 +21°C° 0 mm 2 mps 620 mmHg 44%
03:00 +21°C° 0 mm 2 mps 620 mmHg 45%
04:00 +21°C° 0 mm 2 mps 621 mmHg 45%
05:00 +21°C° 0 mm 2 mps 621 mmHg 45%
06:00 +23°C° 0 mm 1 mps 621 mmHg 44%
07:00 +24°C° 0 mm 2 mps 622 mmHg 40%
08:00 +26°C° 0 mm 2 mps 622 mmHg 36%
09:00 +28°C° 0 mm 2 mps 623 mmHg 32%
10:00 +29°C° 0 mm 2 mps 623 mmHg 30%
11:00 +30°C° 0 mm 2 mps 623 mmHg 28%
12:00 +31°C° 0 mm 2 mps 623 mmHg 26%
13:00 +31°C° 0 mm 3 mps 623 mmHg 27%
14:00 +31°C° 0 mm 3 mps 622 mmHg 28%
15:00 +32°C° 0 mm 4 mps 622 mmHg 28%
16:00 +30°C° 0 mm 4 mps 621 mmHg 30%
17:00 +29°C° 0 mm 4 mps 621 mmHg 31%
18:00 +28°C° 0 mm 4 mps 621 mmHg 33%
19:00 +27°C° 0 mm 4 mps 621 mmHg 36%
20:00 +25°C° 0 mm 3 mps 620 mmHg 39%
21:00 +24°C° 0 mm 3 mps 620 mmHg 41%
22:00 +22°C° 0 mm 3 mps 620 mmHg 42%
23:00 +21°C° 0 mm 3 mps 620 mmHg 43%

10 July, Friday

Time Temperature Precipitation Wind Pressure Humidity
00:00 +21°C° 0 mm 3 mps 620 mmHg 44%
01:00 +20°C° 0 mm 2 mps 620 mmHg 46%
02:00 +20°C° 0 mm 2 mps 619 mmHg 47%
03:00 +19°C° 0 mm 2 mps 619 mmHg 48%
04:00 +20°C° 0 mm 2 mps 620 mmHg 48%
05:00 +20°C° 0 mm 3 mps 620 mmHg 48%
06:00 +20°C° 0 mm 3 mps 620 mmHg 48%
07:00 +22°C° 0 mm 3 mps 621 mmHg 43%
08:00 +24°C° 0 mm 3 mps 621 mmHg 38%
09:00 +25°C° 0 mm 3 mps 621 mmHg 32%
10:00 +26°C° 0.1 mm 4 mps 621 mmHg 32%
11:00 +27°C° 0.1 mm 4 mps 621 mmHg 32%
12:00 +27°C° 0.1 mm 5 mps 621 mmHg 32%
13:00 +28°C° 0 mm 5 mps 621 mmHg 31%
14:00 +28°C° 0 mm 6 mps 621 mmHg 31%
15:00 +29°C° 0 mm 6 mps 621 mmHg 30%
16:00 +27°C° 0.3 mm 5 mps 621 mmHg 37%
17:00 +25°C° 0.3 mm 4 mps 620 mmHg 44%
18:00 +22°C° 0.3 mm 3 mps 620 mmHg 51%
19:00 +22°C° 0.1 mm 3 mps 620 mmHg 52%
20:00 +21°C° 0.1 mm 3 mps 620 mmHg 53%
21:00 +20°C° 0.1 mm 3 mps 620 mmHg 54%
22:00 +20°C° 0 mm 3 mps 620 mmHg 55%
23:00 +19°C° 0 mm 2 mps 620 mmHg 56%
Show more